Weather History for YMML - November, 2013

Change the Weather History Date:

Saturday, November 23, 2013

  Actual Average Record
Temperature  
Mean Temperature 56 °F -  
Max Temperature 64 °F 72 °F 91 °F (2002)
Min Temperature 49 °F 50 °F 41 °F (1996)
Degree Days  
Heating Degree Days 8    
Growing Degree Days 6 (Base 50)    
Moisture  
Dew Point 51 °F    
Average Humidity 79    
Maximum Humidity 100    
Minimum Humidity 46    
Precipitation  
Precipitation 0.12 in 0.07 in - ()
Sea Level Pressure  
Sea Level Pressure 29.74 in    
Wind  
Wind Speed 9 mph ()    
Max Wind Speed 21 mph    
Max Gust Speed 33 mph    
Visibility 7.6 miles    
Events Rain , Thunderstorm    
Averages and records for this station are not official NWS values.
T = Trace of Precipitation, MM = Missing Value Source: Averaged Metar Reports

Daily Weather History Graph

Daily Weather History Graph

Search for Another Location

Airport or City:

Trip Planner

Search our weather history database for the weather conditions in past years. The results will help you decide how hot, cold, wet, or windy it might be!

Date:

Astronomy

Nov. 23, 2013 Rise Set
Actual Time 5:55 AM AEDT 8:18 PM AEDT
Civil Twilight 5:26 AM AEDT 8:48 PM AEDT
Nautical Twilight 4:49 AM AEDT 9:25 PM AEDT
Astronomical Twilight 4:08 AM AEDT 10:06 PM AEDT
Moon No Moon Rise 10:26 AM AEDT (11/23)
Length of Visible Light 15h 22m
Length of Day
14h 22m
Waning Gibbous, 75% of the Moon is Illuminated
Nov 23
Waning Gibbous
Nov 26
Last Quarter
Dec 3
New
Dec 10
First Quarter
Dec 17
Full

Hourly Weather History & Observations

Time (AEDT) Temp. Dew Point Humidity Pressure Visibility Wind Dir Wind Speed Gust Speed Precip Events Conditions
12:00 AM 53 °F 49 °F 83% 29.77 in 19 mi WNW 8.1 mph - -   Partly Cloudy
12:00 AM 53.6 °F 50.0 °F 88% 29.77 in 6.2 mi WNW 8.1 mph - N/A   Mostly Cloudy
12:30 AM 53.6 °F 50.0 °F 88% 29.77 in 6.2 mi WNW 8.1 mph - N/A   Mostly Cloudy
1:00 AM 53 °F 49 °F 83% 29.76 in - West 8.1 mph - -  
1:00 AM 51.8 °F 50.0 °F 94% 29.74 in 6.2 mi West 8.1 mph - N/A   Mostly Cloudy
1:30 AM 51.8 °F 48.2 °F 88% 29.74 in 6.2 mi WNW 6.9 mph - N/A   Partly Cloudy
2:00 AM 51 °F 48 °F 85% 29.75 in - NW 5.8 mph - -  
2:00 AM 50.0 °F 48.2 °F 94% 29.74 in 6.2 mi NW 5.8 mph - N/A   Partly Cloudy
2:30 AM 50.0 °F 48.2 °F 94% 29.74 in 6.2 mi North 4.6 mph - N/A   Scattered Clouds
3:00 AM 52 °F 49 °F 85% 29.74 in 19 mi WNW 6.9 mph - -   Partly Cloudy
3:00 AM 51.8 °F 48.2 °F 88% 29.74 in 6.2 mi WNW 6.9 mph - N/A   Mostly Cloudy
3:30 AM 51.8 °F 50.0 °F 94% 29.71 in 6.2 mi West 6.9 mph - N/A   Mostly Cloudy
4:00 AM 53 °F 49 °F 82% 29.73 in - WNW 6.9 mph - -  
4:00 AM 53.6 °F 50.0 °F 88% 29.71 in 6.2 mi WNW 6.9 mph - N/A   Mostly Cloudy
4:30 AM 51.8 °F 48.2 °F 88% 29.71 in 6.2 mi NW 6.9 mph - N/A   Mostly Cloudy
5:00 AM 52 °F 49 °F 88% 29.72 in - NW 5.8 mph - -  
5:00 AM 51.8 °F 50.0 °F 94% 29.71 in 6.2 mi NW 5.8 mph - N/A   Mostly Cloudy
5:30 AM 53.6 °F 50.0 °F 88% 29.71 in 6.2 mi NW 6.9 mph - N/A   Mostly Cloudy
6:00 AM 53 °F 50 °F 87% 29.72 in 19 mi NW 4.6 mph - -   Partly Cloudy
6:00 AM 53.6 °F 50.0 °F 88% 29.71 in 6.2 mi NW 4.6 mph - N/A   Mostly Cloudy
6:30 AM 53.6 °F 50.0 °F 88% 29.71 in 6.2 mi WNW 6.9 mph - N/A   Mostly Cloudy
7:00 AM 54 °F 51 °F 85% 29.73 in - West 6.9 mph - -  
7:00 AM 55.4 °F 50.0 °F 82% 29.71 in 6.2 mi West 6.9 mph - N/A   Mostly Cloudy
7:15 AM 55.4 °F 51.8 °F 88% 29.74 in 3.7 mi West 8.1 mph - N/A   Light Drizzle
7:30 AM 53.6 °F 51.8 °F 94% 29.74 in 5.6 mi West 9.2 mph - N/A   Light Drizzle
8:00 AM 55 °F 52 °F 85% 29.75 in - WSW 9.2 mph - -  
8:00 AM 55.4 °F 51.8 °F 88% 29.74 in 6.2 mi WSW 9.2 mph - N/A   Mostly Cloudy
8:30 AM 57.2 °F 51.8 °F 82% 29.74 in 6.2 mi WSW 11.5 mph - N/A   Mostly Cloudy
9:00 AM 58 °F 51 °F 72% 29.75 in 19 mi WSW 11.5 mph - -   Mostly Cloudy
9:00 AM 57.2 °F 51.8 °F 82% 29.74 in 6.2 mi WSW 11.5 mph - N/A   Mostly Cloudy
9:30 AM 59.0 °F 50.0 °F 72% 29.74 in 6.2 mi WSW 10.4 mph - N/A   Mostly Cloudy
10:00 AM 61 °F 49 °F 56% 29.75 in - WSW 10.4 mph - -  
10:00 AM 60.8 °F 50.0 °F 68% 29.74 in 6.2 mi WSW 10.4 mph - N/A   Mostly Cloudy
10:30 AM 64.4 °F 50.0 °F 59% 29.74 in 6.2 mi SW 9.2 mph - N/A   Mostly Cloudy
11:00 AM 63 °F 48 °F 47% 29.74 in - South 9.2 mph - -  
11:00 AM 62.6 °F 48.2 °F 59% 29.74 in 6.2 mi South 9.2 mph - N/A Rain Light Rain Showers
11:30 AM 59.0 °F 51.8 °F 77% 29.74 in 6.2 mi SW 15.0 mph - N/A Rain Light Rain Showers
12:00 PM 61 °F 50 °F 59% 29.74 in 16 mi SSW 11.5 mph - - Rain Light Rain Showers
12:00 PM 60.8 °F 50.0 °F 68% 29.74 in 6.2 mi SSW 11.5 mph - N/A Rain Light Rain Showers
12:30 PM 62.6 °F 51.8 °F 68% 29.74 in 6.2 mi SSW 10.4 mph - N/A Rain Light Rain Showers
1:00 PM 62 °F 49 °F 53% 29.74 in - WSW 5.8 mph - -  
1:00 PM 60.8 °F 50.0 °F 68% 29.74 in 6.2 mi WSW 5.8 mph - N/A Rain Light Rain Showers
1:30 PM 60.8 °F 50.0 °F 68% 29.74 in 6.2 mi NW 11.5 mph - N/A Rain Light Rain Showers
2:00 PM 63 °F 47 °F 46% 29.73 in - WSW 6.9 mph - -  
2:00 PM 62.6 °F 48.2 °F 59% 29.71 in 6.2 mi WSW 6.9 mph - N/A Rain Light Rain Showers
2:30 PM 64.4 °F 46.4 °F 52% 29.71 in 6.2 mi SW 8.1 mph - N/A Rain Light Rain Showers
3:00 PM 59 °F 51 °F 66% 29.73 in 19 mi WSW 15.0 mph - - Rain Light Rain Showers
3:00 PM 59.0 °F 50.0 °F 72% 29.71 in 6.2 mi WSW 15.0 mph - N/A Rain Light Rain Showers
3:30 PM 62.6 °F 50.0 °F 63% 29.71 in 6.2 mi SW 11.5 mph - N/A   Scattered Clouds
4:00 PM 64 °F 49 °F 49% 29.71 in - SW 10.4 mph - -  
4:00 PM 64.4 °F 50.0 °F 59% 29.71 in 6.2 mi SW 10.4 mph - N/A   Scattered Clouds
4:30 PM 64.4 °F 50.0 °F 59% 29.71 in 6.2 mi WSW 8.1 mph - N/A   Scattered Clouds
5:00 PM 59 °F 54 °F 79% 29.72 in - SSW 20.7 mph - -  
5:00 PM 59.0 °F 53.6 °F 82% 29.71 in 1.2 mi SSW 20.7 mph - N/A Rain , Thunderstorm Thunderstorms and Rain
5:07 PM 57.2 °F 53.6 °F 88% 29.71 in 6.2 mi West 20.7 mph 33.4 mph N/A Rain , Thunderstorm Thunderstorms and Rain
5:21 PM 57.2 °F 55.4 °F 94% 29.71 in 6.2 mi West 10.4 mph - N/A Rain Light Rain Showers
5:30 PM 59.0 °F 55.4 °F 88% 29.71 in 6.2 mi SW 13.8 mph - N/A Rain Light Rain Showers
6:00 PM 59 °F 53 °F 75% 29.73 in 19 mi SW 10.4 mph - - Thunderstorm Light Thunderstorm
6:00 PM 59.0 °F 53.6 °F 82% 29.71 in 6.2 mi SW 10.4 mph - N/A   Partly Cloudy
6:30 PM 60.8 °F 51.8 °F 72% 29.71 in 6.2 mi SSW 15.0 mph - N/A   Mostly Cloudy
7:00 PM 59 °F 52 °F 69% 29.75 in - South 15.0 mph - -  
7:00 PM 59.0 °F 51.8 °F 77% 29.74 in 6.2 mi South 15.0 mph - N/A   Mostly Cloudy
7:30 PM 59.0 °F 51.8 °F 77% 29.74 in 6.2 mi South 16.1 mph - N/A   Mostly Cloudy
8:00 PM 59 °F 52 °F 72% 29.77 in - South 10.4 mph - -  
8:00 PM 59.0 °F 51.8 °F 77% 29.77 in 6.2 mi South 10.4 mph - N/A   Mostly Cloudy
8:30 PM 59.0 °F 51.8 °F 77% 29.77 in 6.2 mi SSW 16.1 mph - N/A   Mostly Cloudy
9:00 PM 58 °F 53 °F 78% 29.78 in 19 mi South 13.8 mph - -   Mostly Cloudy
9:00 PM 57.2 °F 53.6 °F 88% 29.77 in 6.2 mi South 13.8 mph - N/A   Mostly Cloudy
9:34 PM 55.4 °F 53.6 °F 94% 29.77 in 3.1 mi SSW 12.7 mph - N/A Rain Light Rain Showers
9:38 PM 55.4 °F 53.6 °F 94% 29.77 in 2.5 mi SSW 15.0 mph - N/A Rain Light Rain Showers
10:00 PM 55 °F 54 °F 93% 29.80 in - SW 15.0 mph - -  
10:00 PM 55.4 °F 53.6 °F 94% 29.80 in 4.3 mi SW 15.0 mph - N/A Rain Light Rain Showers
10:30 PM 55.4 °F 53.6 °F 94% 29.80 in 6.2 mi SW 16.1 mph - N/A   Mostly Cloudy
11:00 PM 54 °F 53 °F 94% 29.81 in - SW 16.1 mph - -  
11:00 PM 53.6 °F 53.6 °F 100% 29.80 in 6.2 mi SW 16.1 mph - N/A   Mostly Cloudy
11:30 PM 53.6 °F 53.6 °F 100% 29.80 in 6.2 mi SW 15.0 mph - N/A   Light Drizzle